Location: ??????
(55.2000°N, 38.3000°E)
Time: 01:37:56
(UTC+00:00)

Helios 1A Rocket - Pass Details

Date: 15 November 2025
Orbit: 439 x 451 km, 98.3° (Epoch: 12 December)

Event Time Altitude Azimuth Distance (km) Brightness Sun altitude
Rises 02:58:14 0° 181° (S) 2,431 6.2 -17.0°
Reaches altitude 10° 03:00:20 10° 189° (S) 1,562 5.1 -16.7°
Maximum altitude 03:03:29 39° 260° (W) 683 2.8 -16.2°
Enters shadow 03:03:38 39° 267° (W) 686 2.8 -16.2°
